Retour au catalogue

STARLINK-36890

ActifCommunicationsVLEO
NORAD 68258·PAYLOAD·🇺🇸 United States

Lancé Mar 17, 2026 depuis Vandenberg Space Force Base

Loading…

Prochains Passages (prochaines 24 heures)

TLE

FraisSource: CelesTrak SupGP

Époque: Sep 15, 2026, 03:39 UTC

1 68258C 26054AC  26258.15256944  .00046785  00000+0  13814-2 0  2581
2 68258  53.1565 135.0165 0001169  85.3374 337.7842 15.34388288    19

Suivez STARLINK-36890 en temps réel avec AllMySat

Download on the App Store